Weather History for Rapid City, SD

Change the Weather History Date:

Wednesday, June 12, 2013

  Actual Average Record
Temperature  
Mean Temperature 61 °F 63 °F  
Max Temperature 68 °F 76 °F 98 °F (1952)
Min Temperature 53 °F 50 °F 35 °F (1985)
Degree Days  
Heating Degree Days 4 4  
Month to date heating degree days 72 59  
Since 1 June heating degree days 72 59  
Since 1 July heating degree days 7176 7113  
Cooling Degree Days 0 2  
Month to date cooling degree days 4 16  
Year to date cooling degree days 12 31  
Since 1 June cooling degree days 4 16  
Growing Degree Days 11 (Base 50)    
Moisture  
Dew Point 52 °F    
Average Humidity 79    
Maximum Humidity 100    
Minimum Humidity 58    
Precipitation  
Precipitation 0.00 in 0.08 in 1.57 in (1970)
Month to date precipitation 0.58 1.23  
Year to date precipitation 8.20 7.92  
Snow  
Snow 0.00 in 0.00 in - ()
Month to date snowfall 0.0 0.0  
Since 1 June snowfall 0.0 0.0  
Since 1 July snowfall 76.7 41.1  
Snow Depth 0.00 in    
Sea Level Pressure  
Sea Level Pressure 30.06 in    
Wind  
Wind Speed 8 mph (North)    
Max Wind Speed 22 mph    
Max Gust Speed 25 mph    
Visibility 10 miles    
Events      
T = Trace of Precipitation, MM = Missing Value Source: NWS Daily Summary

Daily Weather History Graph

Daily Weather History Graph

Search for Another Location

Airport:

Trip Planner

Search our weather history database for the weather conditions in past years. The results will help you decide how hot, cold, wet, or windy it might be!

Date:

Astronomy

Jun. 12, 2013 Rise Set
Actual Time 5:08 AM MDT 8:35 PM MDT
Civil Twilight 4:32 AM MDT 9:12 PM MDT
Nautical Twilight 3:45 AM MDT 9:59 PM MDT
Astronomical Twilight 2:44 AM MDT 11:00 PM MDT
Moon 8:56 AM MDT (6/12) 11:05 PM MDT (6/12)
Length of Visible Light 16h 39m
Length of Day
15h 27m
Waxing Crescent, 14% of the Moon is Illuminated
Jun 12
Waxing Crescent
Jun 16
First Quarter
Jun 23
Full
Jun 29
Last Quarter
Jul 8
New

Hourly Weather History & Observations

Time (MDT) Temp. Dew Point Humidity Pressure Visibility Wind Dir Wind Speed Gust Speed Precip Events Conditions
12:08 AM 57.2 °F 55.4 °F 94% 29.91 in 10.0 mi SSW 5.8 mph - N/A   Scattered Clouds
12:52 AM 57.0 °F 55.0 °F 93% 29.88 in 10.0 mi WNW 12.7 mph - N/A   Clear
1:52 AM 55.0 °F 52.0 °F 89% 29.87 in 10.0 mi NNW 8.1 mph - N/A   Clear
2:52 AM 55.0 °F 52.0 °F 89% 29.87 in 10.0 mi Calm Calm - N/A   Clear
3:52 AM 57.0 °F 54.0 °F 89% 29.92 in 10.0 mi North 13.8 mph 20.7 mph N/A   Partly Cloudy
4:06 AM 57.2 °F 55.4 °F 94% 29.97 in 10.0 mi North 13.8 mph 23.0 mph N/A   Mostly Cloudy
4:52 AM 55.0 °F 54.0 °F 96% 29.96 in 8.0 mi North 11.5 mph - N/A   Overcast
5:52 AM 54.0 °F 53.1 °F 97% 30.00 in 10.0 mi North 8.1 mph - N/A   Overcast
6:52 AM 55.0 °F 53.1 °F 93% 30.01 in 10.0 mi NNW 9.2 mph - N/A   Overcast
7:26 AM 55.4 °F 51.8 °F 88% 30.06 in 10.0 mi NW 11.5 mph - N/A   Overcast
7:34 AM 55.4 °F 51.8 °F 88% 30.06 in 10.0 mi NW 13.8 mph - N/A   Overcast
7:52 AM 55.9 °F 52.0 °F 87% 30.02 in 10.0 mi NNW 15.0 mph - N/A   Overcast
8:07 AM 55.4 °F 51.8 °F 88% 30.06 in 10.0 mi NNW 16.1 mph - N/A   Overcast
8:52 AM 57.9 °F 51.1 °F 78% 30.05 in 10.0 mi North 18.4 mph 25.3 mph N/A   Mostly Cloudy
9:07 AM 57.2 °F 51.8 °F 82% 30.10 in 10.0 mi North 16.1 mph 24.2 mph N/A   Mostly Cloudy
9:18 AM 57.2 °F 51.8 °F 82% 30.10 in 10.0 mi NNW 13.8 mph 21.9 mph N/A   Overcast
9:52 AM 57.0 °F 51.1 °F 81% 30.10 in 10.0 mi North 15.0 mph - N/A   Overcast
10:52 AM 57.9 °F 52.0 °F 81% 30.13 in 10.0 mi North 12.7 mph 17.3 mph N/A   Overcast
11:52 AM 62.1 °F 53.1 °F 72% 30.14 in 10.0 mi North 9.2 mph - N/A   Overcast
12:39 PM 62.6 °F 51.8 °F 68% 30.16 in 10.0 mi North 11.5 mph - N/A   Mostly Cloudy
12:52 PM 64.0 °F 53.1 °F 67% 30.13 in 10.0 mi North 11.5 mph - N/A   Overcast
1:52 PM 66.0 °F 53.1 °F 63% 30.13 in 10.0 mi NNE 8.1 mph - N/A   Mostly Cloudy
2:52 PM 64.9 °F 51.1 °F 61% 30.13 in 10.0 mi NE 5.8 mph - N/A   Mostly Cloudy
3:52 PM 66.9 °F 51.1 °F 57% 30.12 in 10.0 mi East 3.5 mph - N/A   Scattered Clouds
4:52 PM 66.9 °F 52.0 °F 59% 30.11 in 10.0 mi East 6.9 mph - N/A   Overcast
5:52 PM 64.9 °F 52.0 °F 63% 30.10 in 10.0 mi ESE 3.5 mph - N/A   Mostly Cloudy
6:52 PM 64.9 °F 52.0 °F 63% 30.09 in 10.0 mi ESE 9.2 mph - N/A   Partly Cloudy
7:52 PM 61.0 °F 53.1 °F 75% 30.11 in 10.0 mi SE 5.8 mph - N/A   Partly Cloudy
8:52 PM 57.9 °F 51.1 °F 78% 30.12 in 10.0 mi Calm Calm - N/A   Clear
9:52 PM 54.0 °F 51.1 °F 90% 30.16 in 10.0 mi East 4.6 mph - N/A   Clear
10:52 PM 54.0 °F 51.1 °F 90% 30.13 in 10.0 mi SE 8.1 mph - N/A   Clear
11:52 PM 55.9 °F 51.1 °F 84% 30.16 in 10.0 mi Calm Calm - N/A   Mostly Cloudy